Regional Weather Roundup
Issued by NWS

Home | Current Version | Previous Version | Graphics & Text | Print | Product List | Glossary On
Versions: 1 2 3 4 5 6 7 8 9 10 11 12 13 14 15 16 17 18 19 20 21 22 23 24 25 26 27 28 29 30 31 32 33 34 35 36 37 38 39 40 41 42 43 44 45 46 47 48 49 50
000
ASUS43 KIND 210600
RWRIN

WEATHER ROUNDUP FOR INDIANA
NATIONAL WEATHER SERVICE INDIANAPOLIS IN
200 AM EDT SAT OCT 21 2017

NOTE: "FAIR" INDICATES FEW OR NO CLOUDS BELOW 12,000 FEET WITH NO
SIGNIFICANT WEATHER AND/OR OBSTRUCTIONS TO VISIBILITY.

* - STATION DOES NOT REPORT WEATHER SUCH AS PRECIPITATION OR FOG.

+ - STATION NOT QUALITY CONTROLLED BY THE NATIONAL WEATHER SERVICE.
    USE DATA WITH CAUTION...ESPECIALLY DEWPOINT AND RELATIVE
    HUMIDITY OBSERVATIONS.

INZ001>003-010>013-019-020-210700-
NORTHWEST INDIANA

CITY           SKY/WX    TMP DP  RH WIND       PRES   REMARKS
KNOX *+        CLOUDY    59  48  67 S6        30.12R
MICHIGAN CITY+ PTCLDY    61  46  59 S9        30.10S
MONTICELLO +   CLOUDY    57  50  75 CALM      30.12R
6HR MIN TEMP:  57; 6HR MAX TEMP:  65;

RENSSELAER +   CLOUDY    57  43  58 S6        30.11S

$$

LMZ046-743>745-210700-
SOUTHERN LAKE MICHIGAN

STATION/POSITION TIME  TEMP    WIND        PRES    WAVE
                       AIR SEA DIR/SP/G            HT
                 (UTC) (F)     (DEG/KT/KT) (MB)    (FT)
BURNS HARBOR     0540   63     190/ 13/ 17 1019.0F
MICHIGAN CITY    0530   63     170/ 10/ 13   N/A
5NW MICH CITY    0550   60 58  180/ 10/ 12   N/A     1

$$

INZ004-005-014>016-021>024-210700-
NORTH CENTRAL INDIANA

CITY           SKY/WX    TMP DP  RH WIND       PRES   REMARKS
GOSHEN         CLOUDY    60  47  61 S9        30.13S
6HR MIN TEMP:  59; 6HR MAX TEMP:  65;

PERU/GRISSOM   CLOUDY    55  49  80 S7        30.13S
6HR MIN TEMP:  55; 6HR MAX TEMP:  63;

SOUTH BEND     CLOUDY    58  49  72 S5        30.13R
6HR MIN TEMP:  58; 6HR MAX TEMP:  64;

WARSAW +       CLOUDY    59  48  67 CALM      30.14S

$$

INZ006>009-017-018-025>027-210700-
NORTHEAST INDIANA

CITY           SKY/WX    TMP DP  RH WIND       PRES   REMARKS
AUBURN +       PTCLDY    52  48  87 CALM      30.16S
FORT WAYNE     CLOUDY    54  48  80 S3        30.16S
6HR MIN TEMP:  52; 6HR MAX TEMP:  62;

KENDALLVILLE + PTCLDY    56  50  79 S6        30.15S

$$

INZ028-029-035-036-043>045-051>053-210700-
WEST CENTRAL INDIANA

CITY           SKY/WX    TMP DP  RH WIND       PRES   REMARKS
GREENCASTLE +  MOCLDY    54  46  76 CALM      30.14S
LAFAYETTE      CLOUDY    58  50  75 S3        30.12S
6HR MIN TEMP:  53; 6HR MAX TEMP:  62;

TERRE HAUTE    CLOUDY    56  48  74 SE5       30.13F
6HR MIN TEMP:  55; 6HR MAX TEMP:  64;


$$

INZ030>032-037>040-046>048-054>057-064-065-210700-
CENTRAL INDIANA

CITY           SKY/WX    TMP DP  RH WIND       PRES   REMARKS
FRANKFORT +    PTCLDY    58  51  79 S3        30.15R
6HR MIN TEMP:  56; 6HR MAX TEMP:  60;

GREENWOOD *+   CLOUDY    60  52  73 SE7       30.16F
6HR MIN TEMP:  60; 6HR MAX TEMP:  70;

INDIANAPOLIS   CLOUDY    56  48  74 S5        30.15F
6HR MIN TEMP:  55; 6HR MAX TEMP:  65;

-EAGLE CREEK   CLOUDY    55  48  77 E5        30.14F
6HR MIN TEMP:  54; 6HR MAX TEMP:  65;

KOKOMO +       PTCLDY    54  49  83 S6        30.15S
6HR MIN TEMP:  53; 6HR MAX TEMP:  61;

MT COMFORT *+  PTCLDY    57  54  88 S5        30.16F
SHELBYVILLE    PTCLDY    52  46  80 S3        30.15F
6HR MIN TEMP:  52; 6HR MAX TEMP:  60;


$$

INZ033-034-041-042-049-050-058-059-210700-
EAST CENTRAL INDIANA

CITY           SKY/WX    TMP DP  RH WIND       PRES   REMARKS
MUNCIE         CLOUDY    62  50  64 S9        30.16S
6HR MIN TEMP:  57; 6HR MAX TEMP:  67;

RICHMOND +     PTCLDY    52  50  93 S6        30.20S

$$

INZ060-061-067>069-081>083-085>088-210700-
SOUTHWEST INDIANA

CITY           SKY/WX    TMP DP  RH WIND       PRES   REMARKS
EVANSVILLE     CLOUDY    56  50  80 CALM      30.14F
6HR MIN TEMP:  53; 6HR MAX TEMP:  66;

HUNTINGBURG +  PTCLDY    56  50  80 SE6       30.15S
6HR MIN TEMP:  52; 6HR MAX TEMP:  64;


$$

INZ062-063-066-070>080-084-089>092-210700-
SOUTH CENTRAL AND SOUTHEAST INDIANA

CITY           SKY/WX    TMP DP  RH WIND       PRES   REMARKS
BLOOMINGTON    CLOUDY    57  48  72 SE5       30.14F
6HR MIN TEMP:  55; 6HR MAX TEMP:  63;

MADISON *+     CLEAR     55  50  82 E3        30.19F
SEYMOUR +      PTCLDY    54  48  82 SE7       30.16F

$$




USA.gov is the U.S. government's official web portal to all federal, state and local government web resources and services.